Lapse_Rate
7.9 7.9 8.1 8.2 8.1 7.8 7.8 7.8 7.7 7.5 7.4 7.2 7.0 6.9 6.8 6.9 6.8 6.8 6.7 6.5 6.5 6.6 6.5 6.6 6.7 6.6 6.3 6.2 6.1 6.0 5.8 6.0 6.1 6.2 6.3 6.4 6.5 6.7 6.6 6.5 6.5 6.4 6.4
7.9 7.9 7.9 8.1 8.1 7.9 7.8 7.7 7.8 7.6 7.5 7.3 7.1 7.1 6.9 6.8 6.9 6.8 6.9 6.7 6.6 6.6 6.6 6.5 6.7 6.7 6.6 6.5 6.3 6.1 5.9 6.1 6.3 6.4 6.4 6.5 6.5 6.5 6.6 6.4 6.3 6.4 6.3
7.9 7.9 7.8 8.0 8.1 8.1 7.8 7.7 7.7 7.6 7.6 7.4 7.2 7.1 7.1 6.9 6.9 6.9 6.9 6.8 6.7 6.7 6.8 6.7 6.6 6.6 6.7 6.6 6.6 6.4 6.4 6.6 6.9 6.9 6.8 6.7 6.6 6.6 6.6 6.6 6.4 6.3 6.3
7.8 7.9 7.8 8.0 8.1 8.2 7.9 7.7 7.7 7.5 7.5 7.5 7.4 7.1 7.1 7.1 6.9 6.8 6.8 6.8 6.8 6.7 6.8 6.9 6.9 6.8 6.8 6.7 6.7 6.6 6.6 6.8 7.0 7.1 7.2 6.7 6.7 6.6 6.6 6.6 6.6 6.4 6.3
7.7 7.6 7.7 7.9 8.0 8.2 8.0 7.7 7.7 7.5 7.5 7.5 7.4 7.3 7.1 7.1 7.0 6.9 6.8 6.8 6.8 6.8 6.7 6.8 6.8 6.9 6.9 6.9 6.7 6.6 6.6 7.0 7.0 7.0 7.2 7.2 7.2 6.9 6.8 6.6 6.6 6.6 6.5
7.7 7.7 7.6 7.7 7.7 8.0 8.2 7.8 7.7 7.5 7.4 7.5 7.5 7.3 7.2 7.2 7.1 7.0 6.8 6.8 6.8 6.8 6.8 6.8 6.8 6.9 6.9 6.9 6.9 6.6 6.5 7.1 6.8 6.9 6.8 7.0 7.1 7.3 7.0 6.8 6.6 6.5 6.5
7.3 7.7 7.8 7.6 7.6 7.8 8.2 7.8 7.7 7.6 7.5 7.5 7.5 7.4 7.3 7.2 7.2 7.1 7.0 6.9 6.9 6.8 6.9 6.9 6.8 6.9 6.9 6.9 6.8 6.6 6.6 6.8 6.9 7.0 6.8 6.8 6.8 6.9 7.0 6.9 6.9 6.8 6.7
7.2 7.5 7.9 7.7 7.5 7.5 8.1 7.8 7.7 7.6 7.6 7.6 7.5 7.4 7.3 7.2 7.1 7.1 7.0 7.0 7.0 7.0 6.9 7.0 6.9 6.9 6.9 6.9 6.8 6.6 6.5 7.1 7.0 7.1 6.5 6.7 6.7 6.8 6.8 6.9 6.9 6.9 6.9
6.9 7.4 7.7 7.5 7.3 7.4 7.7 7.6 7.5 7.6 7.6 7.5 7.3 7.4 7.2 7.2 7.2 7.1 7.1 7.0 7.0 7.1 7.0 7.0 7.0 7.0 6.9 6.9 6.8 6.6 6.4 7.1 7.1 7.1 6.5 6.7 6.7 6.8 7.1 7.0 6.8 6.9 7.0
6.6 7.3 7.3 7.3 7.2 7.3 7.5 7.4 7.5 7.5 7.6 7.6 7.5 7.7 7.6 7.3 7.1 7.1 7.2 7.1 6.9 7.0 6.9 7.1 6.9 7.0 7.0 6.9 6.8 6.5 6.6 7.0 7.1 6.9 6.7 6.7 6.7 6.8 6.9 7.0 7.0 6.9 7.0
6.6 7.3 7.2 7.1 7.1 7.2 7.2 7.2 7.2 7.2 7.3 7.5 7.5 7.4 7.5 7.3 7.2 7.1 7.2 7.1 6.9 7.0 6.9 6.9 7.0 7.1 7.0 6.9 6.7 6.6 6.8 7.2 7.1 6.8 6.7 6.7 6.7 6.8 6.8 6.9 7.0 7.1 7.0
6.9 7.1 7.3 7.1 7.1 7.0 7.1 7.1 7.1 7.0 7.0 7.1 7.3 7.3 7.2 7.0 6.9 6.9 7.3 7.1 6.9 6.9 6.9 6.9 7.0 7.0 7.1 7.0 6.7 6.7 7.1 7.2 7.1 6.7 6.8 6.7 6.8 6.8 6.8 6.8 6.9 6.9 7.0
7.2 7.3 7.2 7.1 7.1 7.0 7.1 7.0 7.2 7.2 7.0 6.8 6.8 6.8 6.8 6.7 6.7 6.8 6.9 6.9 6.8 6.8 6.8 6.8 6.9 6.9 7.1 7.0 6.9 7.0 7.2 7.4 7.1 6.9 7.0 6.8 6.8 6.8 6.8 6.9 6.8 6.9 7.0
6.8 7.1 7.3 7.1 7.0 7.0 7.0 7.1 7.1 7.0 6.9 6.8 6.8 6.7 6.8 6.5 6.4 6.6 6.6 6.5 6.4 6.6 6.7 6.8 6.7 6.9 7.1 6.9 6.9 6.8 7.2 7.5 7.2 7.2 7.1 7.0 7.0 6.9 6.9 7.0 7.0 6.9 6.9
6.2 6.4 6.7 7.3 7.3 7.0 7.1 7.2 7.1 7.1 7.1 7.0 6.9 6.9 6.9 6.6 6.3 6.8 6.9 6.6 6.5 6.4 6.5 6.4 6.5 6.9 7.0 6.9 6.8 6.7 7.3 7.4 7.3 7.1 7.2 7.2 7.1 7.0 7.1 7.0 7.0 7.0 6.9
6.1 6.1 6.7 6.8 6.7 6.8 6.6 6.6 6.9 7.0 6.9 6.8 6.8 7.0 6.8 6.6 6.4 6.8 7.1 6.8 6.5 6.4 6.4 6.4 6.2 6.4 6.8 7.0 6.6 6.8 7.1 7.4 7.1 7.1 7.1 7.1 7.3 7.2 7.2 7.1 7.1 7.0 7.0
6.0 5.6 5.6 6.5 6.7 6.5 6.3 6.0 5.8 6.0 6.1 6.4 6.6 6.9 6.8 6.5 6.0 6.3 6.8 6.9 6.7 6.3 6.1 6.0 6.1 6.4 6.4 6.8 6.5 6.7 7.3 7.3 7.2 7.1 7.0 7.1 7.1 7.2 7.3 7.2 7.2 7.1 7.0
6.7 6.6 6.0 5.8 6.3 6.3 6.1 5.9 6.1 6.0 6.1 6.3 6.4 6.5 6.7 6.9 6.5 6.3 6.4 6.7 6.8 6.4 6.2 5.8 6.0 6.3 6.4 6.5 6.5 6.6 7.0 7.4 7.3 7.1 7.0 7.0 7.0 7.0 7.1 7.2 7.2 7.2 7.1
6.4 6.4 6.3 6.1 5.9 6.4 6.3 6.0 6.1 6.1 6.1 6.1 6.2 6.3 6.6 6.4 6.3 6.4 6.2 6.2 6.2 6.3 6.4 6.2 5.9 6.0 6.2 6.5 6.5 6.5 6.7 7.2 7.2 7.0 7.0 7.0 7.0 7.0 7.0 7.0 7.1 7.1 7.0
6.5 6.5 6.3 6.5 6.5 6.3 6.9 6.6 6.4 6.3 6.4 6.3 6.3 6.0 6.2 6.3 6.6 6.6 6.0 5.6 5.7 5.6 5.9 6.4 6.2 5.9 5.9 6.0 6.2 6.3 6.4 6.7 6.9 6.9 7.1 7.0 6.8 6.8 6.9 6.9 6.9 7.0 6.9
6.4 6.5 6.5 6.3 6.2 6.1 6.0 6.3 6.7 6.5 6.1 6.1 6.0 6.4 6.3 6.2 6.1 6.0 5.9 6.4 6.4 5.5 5.7 6.0 6.1 6.1 5.8 5.9 6.1 6.1 6.3 6.4 6.6 6.9 7.2 7.0 6.7 6.7 6.8 6.8 6.9 7.1 6.8
6.3 6.5 6.4 6.3 6.2 5.9 5.9 6.0 6.2 6.5 6.8 6.9 6.5 6.2 6.0 5.6 5.6 6.0 6.0 5.7 5.6 5.9 6.1 5.3 5.8 6.2 5.9 5.9 6.0 6.4 6.3 6.3 6.4 6.6 6.8 7.1 7.0 6.9 6.7 6.7 6.8 6.9 6.7
6.6 6.8 6.8 6.8 6.7 6.7 6.4 6.2 5.8 5.7 5.7 5.7 5.9 6.3 5.9 5.6 5.6 5.5 5.7 5.7 5.9 5.9 5.9 6.0 5.6 5.9 6.0 5.8 6.0 6.1 6.2 6.4 6.5 6.6 6.6 6.7 6.9 6.9 6.8 6.6 6.7 6.6 6.5
6.3 6.4 6.2 6.5 7.0 6.8 6.9 6.5 6.0 5.8 5.6 5.5 5.7 5.5 5.9 6.1 5.6 5.4 5.4 5.9 5.5 5.8 5.5 6.1 5.6 5.7 6.0 5.9 5.9 6.0 6.1 6.0 6.2 6.4 6.0 6.0 6.5 6.5 6.8 6.6 6.3 6.8 6.4
6.1 6.2 6.4 6.0 5.7 5.9 6.0 5.8 5.8 5.9 6.1 5.9 5.6 5.5 5.1 5.2 5.9 5.6 5.8 5.6 5.7 6.0 6.0 6.0 6.4 6.4 5.9 6.2 6.1 6.2 6.0 6.0 6.2 6.1 5.9 6.1 6.0 6.4 6.5 6.0 5.9 6.0 6.4
6.0 5.7 5.0 4.6 4.6 4.6 4.2 3.5 3.3 3.7 4.1 4.4 4.6 4.5 4.4 4.5 4.7 5.2 5.9 5.6 6.0 5.9 6.1 5.8 6.2 5.8 6.5 6.1 6.2 6.0 5.7 5.9 6.1 6.3 6.2 6.0 5.9 5.9 6.0 5.4 5.8 5.6 5.7
Wind_Speed
5 14 21 19 17 16 18 20 20 20 20 21 19 18 18 18 19 19 18 17 16 15 14 13 13 11 10 10 10 9 9 12 12 12 11 12 13 15 12 15 16 15 16
14 17 21 20 19 17 16 18 20 21 21 22 21 18 18 18 18 16 18 16 15 14 14 11 10 9 9 8 8 6 8 11 8 7 9 11 11 14 19 20 17 16 16
13 16 18 21 20 18 18 18 18 20 22 22 21 20 18 18 17 16 17 15 17 11 12 10 8 7 7 7 6 4 10 9 9 4 1 4 13 15 15 17 16 15 15
15 17 16 19 19 19 18 19 19 19 21 22 21 21 19 18 17 16 16 14 14 10 12 11 8 7 6 5 4 3 10 10 12 19 14 15 13 13 16 16 17 19 19
13 18 16 18 18 18 18 19 20 19 20 22 21 20 20 19 17 16 15 14 14 11 11 9 7 6 5 4 3 3 8 9 13 17 17 16 16 17 19 19 20 20 18
14 19 22 18 18 17 17 18 19 19 20 21 21 21 19 19 17 16 15 14 14 12 9 9 8 6 4 3 1 3 8 12 18 16 19 16 15 19 21 21 21 21 20
13 18 23 23 17 17 16 17 19 20 20 20 21 21 20 19 18 17 16 14 13 10 10 10 8 6 4 2 1 2 12 19 17 16 18 16 17 22 23 23 22 22 21
12 13 19 24 21 16 16 16 17 18 18 19 19 20 20 19 19 17 15 14 11 12 13 11 9 6 4 2 1 2 10 18 17 17 18 19 22 21 21 23 22 22 22
10 11 14 16 19 19 17 17 17 17 18 19 19 19 19 19 20 18 13 12 14 15 13 11 10 7 3 2 3 1 11 19 18 16 18 17 23 20 19 21 21 21 22
8 10 11 13 15 14 15 18 18 18 19 21 22 21 21 20 18 16 14 15 16 15 13 11 10 8 6 4 4 2 13 23 18 17 16 18 22 16 16 18 18 17 18
10 9 9 10 11 12 13 15 18 18 18 18 19 20 21 15 17 18 16 16 15 15 13 11 11 10 8 6 5 2 12 15 16 16 16 21 18 15 14 16 17 17 17
8 12 13 11 12 13 13 15 14 15 14 15 14 16 14 16 15 13 17 19 17 15 14 12 10 10 10 9 6 2 12 16 15 16 18 19 18 14 13 14 15 15 16
14 11 13 12 11 11 7 11 12 13 13 14 16 16 14 13 13 11 13 14 15 16 14 13 11 11 10 10 7 10 16 14 12 15 20 20 18 17 16 16 15 15 16
13 16 14 14 12 12 11 7 9 8 12 10 14 17 13 8 9 9 10 11 12 14 12 14 12 13 10 10 9 16 15 13 13 16 19 19 19 17 17 16 16 16 16
12 12 15 13 12 11 11 7 8 8 10 14 15 17 16 9 7 13 13 15 13 14 13 10 12 11 10 10 11 18 15 14 14 15 17 18 18 17 17 17 17 16 15
9 13 12 13 14 13 11 10 9 10 13 14 14 18 19 16 8 10 9 10 12 16 15 14 10 6 5 10 7 18 16 15 16 16 17 15 17 16 18 17 17 16 16
7 6 18 17 14 14 13 10 9 8 11 8 12 18 22 19 13 13 8 9 14 17 15 13 11 10 4 4 6 10 16 17 16 17 19 14 15 15 17 17 16 15 15
11 16 9 9 11 10 10 9 7 8 10 10 14 17 21 22 21 13 9 10 16 16 14 7 6 5 5 5 4 7 8 14 17 16 15 16 13 12 15 15 16 15 14
12 16 12 5 6 5 3 3 3 5 8 9 15 16 21 22 21 13 11 11 18 11 9 9 4 7 5 4 6 5 6 8 12 15 14 15 15 14 13 13 13 13 12
11 12 15 8 5 6 4 2 1 2 3 7 9 11 20 20 21 13 8 7 14 10 10 9 11 3 4 7 7 5 5 5 8 10 14 16 16 18 17 15 15 14 13
14 14 10 14 11 5 0 1 3 5 4 4 4 12 16 18 21 14 10 11 11 11 14 14 10 12 6 7 7 4 3 3 5 6 15 15 16 17 18 19 17 15 13
10 9 9 8 7 4 3 4 3 3 4 6 6 6 12 15 17 11 14 12 13 11 11 15 17 8 7 11 9 5 3 2 2 6 5 9 12 17 16 17 15 14 16
8 7 6 6 6 4 3 4 3 2 3 2 2 3 7 15 17 15 16 14 13 12 13 16 17 20 13 12 18 6 4 5 6 3 5 7 11 9 14 18 17 18 16
5 6 8 7 5 6 5 4 4 1 3 2 5 7 9 12 15 14 16 17 16 13 16 18 16 18 16 18 14 6 5 6 6 6 5 8 9 9 9 12 18 18 20
6 5 3 2 0 1 5 3 2 2 3 2 3 7 8 10 13 17 18 18 15 13 17 19 20 20 17 17 14 13 3 5 3 7 13 11 7 8 8 12 18 17 17
7 7 5 5 4 6 6 6 4 4 6 4 4 4 5 7 9 13 16 17 18 16 19 18 21 24 21 19 16 16 9 9 9 10 10 14 12 8 7 8 13 16 16
Wind_Direction
134 148 140 134 129 130 136 138 137 133 130 126 123 118 113 110 107 109 109 108 107 105 105 98 91 82 67 65 64 64 68 67 70 73 81 84 87 75 74 112 94 87 80
142 154 139 135 134 135 140 142 142 139 136 132 129 126 122 120 118 120 119 120 117 113 105 92 86 79 75 62 58 57 66 68 73 83 101 104 94 85 86 97 98 95 90
133 146 143 139 138 140 142 144 145 144 140 137 135 134 131 129 129 129 129 136 132 112 103 105 92 84 76 67 62 50 62 69 57 47 58 67 88 93 89 94 95 93 91
141 146 145 143 141 141 146 147 147 150 145 142 142 140 139 136 137 134 135 138 118 117 116 114 116 103 87 80 54 16 65 67 59 68 83 79 89 92 86 77 90 83 74
140 146 145 144 143 142 145 148 151 152 149 146 145 145 144 141 141 141 141 130 123 123 120 122 120 111 106 94 71 1 55 56 97 82 79 83 85 86 88 83 82 80 81
149 145 147 151 146 146 148 150 151 153 153 150 149 149 149 144 146 147 145 131 127 131 136 132 129 118 104 95 82 22 41 60 91 86 79 81 90 100 94 87 86 84 81
147 145 149 155 152 151 150 153 161 157 158 153 152 150 150 147 148 151 145 136 133 140 145 137 134 130 128 114 343 35 56 101 103 98 89 81 91 96 96 94 90 89 86
131 143 151 154 154 156 155 156 158 155 156 154 151 151 151 149 147 147 145 143 154 151 145 145 143 147 155 168 179 322 67 111 101 97 97 92 89 89 95 95 96 96 94
130 131 141 150 153 163 166 165 166 161 158 157 154 152 151 154 153 152 155 155 150 143 150 156 154 153 163 209 213 189 46 113 111 104 97 94 92 94 96 98 98 98 95
135 134 137 140 151 161 164 170 172 169 168 165 162 162 162 160 160 154 159 151 149 150 162 166 161 163 175 210 208 213 60 110 108 106 95 97 86 92 95 97 95 94 93
131 142 144 150 155 160 161 170 175 172 174 175 168 166 156 154 146 146 152 153 155 156 167 172 174 169 177 200 212 236 91 117 116 105 100 99 108 101 94 98 98 96 94
153 158 158 156 163 164 170 170 168 171 173 170 159 159 156 154 151 156 154 160 160 160 166 173 185 181 177 179 186 67 90 120 116 113 110 111 116 116 113 113 109 106 102
172 158 166 163 167 166 166 164 174 173 173 179 169 170 165 162 155 154 153 162 158 163 164 174 189 200 184 174 181 98 110 112 113 111 115 121 121 121 118 115 109 104 100
174 179 169 168 168 176 171 171 173 175 175 172 173 174 171 161 165 150 150 156 160 167 171 179 194 208 213 199 179 125 119 118 115 116 121 126 127 125 121 121 115 110 101
177 175 184 170 170 178 180 175 174 180 185 185 180 181 177 175 173 165 168 169 174 176 181 198 197 205 219 218 177 138 128 124 111 108 112 127 129 132 130 122 119 115 110
153 174 176 181 182 175 185 180 176 183 190 181 188 186 188 194 185 177 176 177 181 185 187 190 198 212 196 161 128 137 133 125 115 105 101 109 115 131 131 127 122 117 113
6 176 178 181 178 182 184 175 174 172 172 182 193 192 185 195 194 181 180 182 185 187 187 197 191 179 152 136 117 121 128 131 123 114 115 106 102 104 121 122 119 120 113
46 25 157 171 177 182 187 181 177 176 177 184 190 193 200 193 199 189 178 187 184 181 180 186 179 163 158 143 127 131 135 135 132 127 122 121 118 107 108 112 115 111 111
59 50 46 96 162 170 160 160 155 166 187 186 182 193 203 206 205 194 195 188 179 180 183 175 176 168 161 140 131 121 124 138 141 139 139 132 135 122 112 119 114 110 110
59 65 51 41 82 73 48 11 305 221 200 190 184 191 197 209 210 192 197 186 180 178 175 170 167 185 146 153 133 112 120 133 135 153 152 149 145 142 143 142 135 126 123
50 51 75 65 37 29 354 224 233 240 252 258 231 197 196 205 209 210 204 189 178 183 184 172 163 161 157 150 122 74 34 122 131 145 152 154 159 159 153 148 146 130 125
62 55 39 69 93 51 38 322 234 220 245 228 220 219 209 210 205 211 212 204 193 183 176 176 171 167 165 168 163 118 150 347 237 166 147 155 162 164 166 163 155 131 119
82 85 76 56 34 48 69 24 7 16 1 321 270 247 233 216 217 214 208 204 200 193 182 185 182 181 177 183 169 151 160 190 151 206 168 165 156 161 169 178 161 139 131
75 86 84 66 16 348 29 77 76 36 302 256 279 271 248 219 218 225 222 207 200 208 198 192 190 186 186 182 182 190 177 153 165 166 185 168 168 161 155 146 139 142 132
67 78 94 140 143 308 344 19 104 184 213 248 301 276 265 272 251 227 218 212 220 210 209 204 195 196 189 187 187 190 161 178 141 162 171 171 162 166 161 152 149 147 132
46 54 50 52 18 335 309 300 316 253 252 256 244 253 259 255 253 248 244 228 218 207 212 204 206 197 199 188 191 195 178 174 175 167 160 167 159 162 164 146 142 137 137